Year,Month,Day,Hour,Minute,Value (Times are PST for temperature in C)
2020,04,11,00,00,7.60
2020,04,11,00,01,7.60
2020,04,11,00,02,7.60
2020,04,11,00,03,7.60
2020,04,11,00,04,7.60
2020,04,11,00,05,7.60
2020,04,11,00,06,7.60
2020,04,11,00,07,7.60
2020,04,11,00,08,7.60
2020,04,11,00,09,7.60
2020,04,11,00,10,7.60
2020,04,11,00,11,7.60
2020,04,11,00,12,7.60
2020,04,11,00,13,7.60
2020,04,11,00,14,7.60
2020,04,11,00,15,7.60
2020,04,11,00,16,7.60
2020,04,11,00,17,7.60
2020,04,11,00,18,7.60
2020,04,11,00,19,7.50
2020,04,11,00,20,7.50
2020,04,11,00,21,7.50
2020,04,11,00,22,7.50
2020,04,11,00,23,7.50
2020,04,11,00,24,7.50
2020,04,11,00,25,7.50
2020,04,11,00,26,7.40
2020,04,11,00,27,7.40
2020,04,11,00,28,7.40
2020,04,11,00,29,7.40
2020,04,11,00,30,7.30
2020,04,11,00,31,7.30
2020,04,11,00,32,7.30
2020,04,11,00,33,7.30
2020,04,11,00,34,7.30
2020,04,11,00,35,7.30
2020,04,11,00,36,7.30
2020,04,11,00,37,7.30
2020,04,11,00,38,7.30
2020,04,11,00,39,7.30
2020,04,11,00,40,7.30
2020,04,11,00,41,7.30
2020,04,11,00,42,7.30
2020,04,11,00,43,7.30
2020,04,11,00,44,7.30
2020,04,11,00,45,7.30
2020,04,11,00,46,7.30
2020,04,11,00,47,7.30
2020,04,11,00,48,7.30
2020,04,11,00,49,7.30
2020,04,11,00,50,7.30
2020,04,11,00,51,7.40
2020,04,11,00,52,7.40
2020,04,11,00,53,7.40
2020,04,11,00,54,7.40
2020,04,11,00,55,7.30
2020,04,11,00,56,7.30
2020,04,11,00,57,7.30
2020,04,11,00,58,7.30
2020,04,11,00,59,7.30
2020,04,11,01,00,7.40
2020,04,11,01,01,7.40
2020,04,11,01,02,7.40
2020,04,11,01,03,7.40
2020,04,11,01,04,7.40
2020,04,11,01,05,7.40
2020,04,11,01,06,7.40
2020,04,11,01,07,7.40
2020,04,11,01,08,7.50
2020,04,11,01,09,7.40
2020,04,11,01,10,7.40
2020,04,11,01,11,7.40
2020,04,11,01,12,7.40
2020,04,11,01,13,7.40
2020,04,11,01,14,7.30
2020,04,11,01,15,7.40
2020,04,11,01,16,7.40
2020,04,11,01,17,7.40
2020,04,11,01,18,7.40
2020,04,11,01,19,7.40
2020,04,11,01,20,7.40
2020,04,11,01,21,7.40
2020,04,11,01,22,7.30
2020,04,11,01,23,7.30
2020,04,11,01,24,7.20
2020,04,11,01,25,7.20
2020,04,11,01,26,7.20
2020,04,11,01,27,7.20
2020,04,11,01,28,7.20
2020,04,11,01,29,7.30
2020,04,11,01,30,7.30
2020,04,11,01,31,7.30
2020,04,11,01,32,7.20
2020,04,11,01,33,7.20
2020,04,11,01,34,7.30
2020,04,11,01,35,7.30
2020,04,11,01,36,7.20
2020,04,11,01,37,7.10
2020,04,11,01,38,7.10
2020,04,11,01,39,7.10
2020,04,11,01,40,7.10
2020,04,11,01,41,7.00
2020,04,11,01,42,6.90
2020,04,11,01,43,6.90
2020,04,11,01,44,6.80
2020,04,11,01,45,6.80
2020,04,11,01,46,6.80
2020,04,11,01,47,6.90
2020,04,11,01,48,6.90
2020,04,11,01,49,6.90
2020,04,11,01,50,6.90
2020,04,11,01,51,6.80
2020,04,11,01,52,6.80
2020,04,11,01,53,6.70
2020,04,11,01,54,6.70
2020,04,11,01,55,6.70
2020,04,11,01,56,6.70
2020,04,11,01,57,6.70
2020,04,11,01,58,6.70
2020,04,11,01,59,6.70
2020,04,11,02,00,6.70
2020,04,11,02,01,6.80
2020,04,11,02,02,6.80
2020,04,11,02,03,6.70
2020,04,11,02,04,6.70
2020,04,11,02,05,6.70
2020,04,11,02,06,6.70
2020,04,11,02,07,6.70
2020,04,11,02,08,6.70
2020,04,11,02,09,6.80
2020,04,11,02,10,6.80
2020,04,11,02,11,6.70
2020,04,11,02,12,6.70
2020,04,11,02,13,6.60
2020,04,11,02,14,6.60
2020,04,11,02,15,6.60
2020,04,11,02,16,6.70
2020,04,11,02,17,6.60
2020,04,11,02,18,6.60
2020,04,11,02,19,6.60
2020,04,11,02,20,6.60
2020,04,11,02,21,6.60
2020,04,11,02,22,6.60
2020,04,11,02,23,6.50
2020,04,11,02,24,6.50
2020,04,11,02,25,6.50
2020,04,11,02,26,6.50
2020,04,11,02,27,6.50
2020,04,11,02,28,6.50
2020,04,11,02,29,6.50
2020,04,11,02,30,6.40
2020,04,11,02,31,6.40
2020,04,11,02,32,6.40
2020,04,11,02,33,6.40
2020,04,11,02,34,6.40
2020,04,11,02,35,6.40
2020,04,11,02,36,6.40
2020,04,11,02,37,6.40
2020,04,11,02,38,6.40
2020,04,11,02,39,6.40
2020,04,11,02,40,6.30
2020,04,11,02,41,6.30
2020,04,11,02,42,6.30
2020,04,11,02,43,6.30
2020,04,11,02,44,6.30
2020,04,11,02,45,6.20
2020,04,11,02,46,6.20
2020,04,11,02,47,6.20
2020,04,11,02,48,6.20
2020,04,11,02,49,6.20
2020,04,11,02,50,6.20
2020,04,11,02,51,6.20
2020,04,11,02,52,6.20
2020,04,11,02,53,6.10
2020,04,11,02,54,6.20
2020,04,11,02,55,6.20
2020,04,11,02,56,6.20
2020,04,11,02,57,6.20
2020,04,11,02,58,6.10
2020,04,11,02,59,6.10
2020,04,11,03,00,6.20
2020,04,11,03,01,6.20
2020,04,11,03,02,6.10
2020,04,11,03,03,6.10
2020,04,11,03,04,6.10
2020,04,11,03,05,6.10
2020,04,11,03,06,6.10
2020,04,11,03,07,6.10
2020,04,11,03,08,6.10
2020,04,11,03,09,6.00
2020,04,11,03,10,6.00
2020,04,11,03,11,5.90
2020,04,11,03,12,5.90
2020,04,11,03,13,6.00
2020,04,11,03,14,6.00
2020,04,11,03,15,6.00
2020,04,11,03,16,6.00
2020,04,11,03,17,6.00
2020,04,11,03,18,6.00
2020,04,11,03,19,6.00
2020,04,11,03,20,6.00
2020,04,11,03,21,5.90
2020,04,11,03,22,5.90
2020,04,11,03,23,5.90
2020,04,11,03,24,5.90
2020,04,11,03,25,5.90
2020,04,11,03,26,6.00
2020,04,11,03,27,6.00
2020,04,11,03,28,6.10
2020,04,11,03,29,6.10
2020,04,11,03,30,6.10
2020,04,11,03,31,6.00
2020,04,11,03,32,6.00
2020,04,11,03,33,6.00
2020,04,11,03,34,6.00
2020,04,11,03,35,6.00
2020,04,11,03,36,5.90
2020,04,11,03,37,5.90
2020,04,11,03,38,5.90
2020,04,11,03,39,5.80
2020,04,11,03,40,5.90
2020,04,11,03,41,5.90
2020,04,11,03,42,5.90
2020,04,11,03,43,5.90
2020,04,11,03,44,5.90
2020,04,11,03,45,5.80
2020,04,11,03,46,5.80
2020,04,11,03,47,5.70
2020,04,11,03,48,5.70
2020,04,11,03,49,5.80
2020,04,11,03,50,5.80
2020,04,11,03,51,5.80
2020,04,11,03,52,5.70
2020,04,11,03,53,5.70
2020,04,11,03,54,5.70
2020,04,11,03,55,5.70
2020,04,11,03,56,5.60
2020,04,11,03,57,5.60
2020,04,11,03,58,5.60
2020,04,11,03,59,5.60
2020,04,11,04,00,5.60
2020,04,11,04,01,5.50
2020,04,11,04,02,5.50
2020,04,11,04,03,5.50
2020,04,11,04,04,5.50
2020,04,11,04,05,5.50
2020,04,11,04,06,5.40
2020,04,11,04,07,5.40
2020,04,11,04,08,5.40
2020,04,11,04,09,5.50
2020,04,11,04,10,5.60
2020,04,11,04,11,5.70
2020,04,11,04,12,5.70
2020,04,11,04,13,5.70
2020,04,11,04,14,5.70
2020,04,11,04,15,5.70
2020,04,11,04,16,5.70
2020,04,11,04,17,5.70
2020,04,11,04,18,5.70
2020,04,11,04,19,5.70
2020,04,11,04,20,5.60
2020,04,11,04,21,5.50
2020,04,11,04,22,5.50
2020,04,11,04,23,5.40
2020,04,11,04,24,5.40
2020,04,11,04,25,5.30
2020,04,11,04,26,5.30
2020,04,11,04,27,5.40
2020,04,11,04,28,5.40
2020,04,11,04,29,5.30
2020,04,11,04,30,5.30
2020,04,11,04,31,5.30
2020,04,11,04,32,5.40
2020,04,11,04,33,5.40
2020,04,11,04,34,5.50
2020,04,11,04,35,5.50
2020,04,11,04,36,5.50
2020,04,11,04,37,5.50
2020,04,11,04,38,5.40
2020,04,11,04,39,5.40
2020,04,11,04,40,5.30
2020,04,11,04,41,5.30
2020,04,11,04,42,5.30
2020,04,11,04,43,5.30
2020,04,11,04,44,5.20
2020,04,11,04,45,5.30
2020,04,11,04,46,5.20
2020,04,11,04,47,5.20
2020,04,11,04,48,5.20
2020,04,11,04,49,5.20
2020,04,11,04,50,5.20
2020,04,11,04,51,5.20
2020,04,11,04,52,5.20
2020,04,11,04,53,5.20
2020,04,11,04,54,5.10
2020,04,11,04,55,5.10
2020,04,11,04,56,5.00
2020,04,11,04,57,5.00
2020,04,11,04,58,5.00
2020,04,11,04,59,5.00
2020,04,11,05,00,5.00
2020,04,11,05,01,5.00
2020,04,11,05,02,4.90
2020,04,11,05,03,4.90
2020,04,11,05,04,4.90
2020,04,11,05,05,4.90
2020,04,11,05,06,4.80
2020,04,11,05,07,4.90
2020,04,11,05,08,4.90
2020,04,11,05,09,4.90
2020,04,11,05,10,4.90
2020,04,11,05,11,4.80
2020,04,11,05,12,4.80
2020,04,11,05,13,4.80
2020,04,11,05,14,4.70
2020,04,11,05,15,4.70
2020,04,11,05,16,4.70
2020,04,11,05,17,4.60
2020,04,11,05,18,4.60
2020,04,11,05,19,4.70
2020,04,11,05,20,4.70
2020,04,11,05,21,4.80
2020,04,11,05,22,4.70
2020,04,11,05,23,4.80
2020,04,11,05,24,4.80
2020,04,11,05,25,4.80
2020,04,11,05,26,4.80
2020,04,11,05,27,4.80
2020,04,11,05,28,4.80
2020,04,11,05,29,4.80
2020,04,11,05,30,4.70
2020,04,11,05,31,4.70
2020,04,11,05,32,4.60
2020,04,11,05,33,4.60
2020,04,11,05,34,4.60
2020,04,11,05,35,4.60
2020,04,11,05,36,4.60
2020,04,11,05,37,4.60
2020,04,11,05,38,4.60
2020,04,11,05,39,4.60
2020,04,11,05,40,4.50
2020,04,11,05,41,4.50
2020,04,11,05,42,4.40
2020,04,11,05,43,4.40
2020,04,11,05,44,4.40
2020,04,11,05,45,4.40
2020,04,11,05,46,4.40
2020,04,11,05,47,4.40
2020,04,11,05,48,4.40
2020,04,11,05,49,4.40
2020,04,11,05,50,4.40
2020,04,11,05,51,4.40
2020,04,11,05,52,4.50
2020,04,11,05,53,4.60
2020,04,11,05,54,4.60
2020,04,11,05,55,4.60
2020,04,11,05,56,4.60
2020,04,11,05,57,4.60
2020,04,11,05,58,4.60
2020,04,11,05,59,4.60
2020,04,11,06,00,4.50
2020,04,11,06,01,4.50
2020,04,11,06,02,4.50
2020,04,11,06,03,4.60
2020,04,11,06,04,4.60
2020,04,11,06,05,4.60
2020,04,11,06,06,4.60
2020,04,11,06,07,4.70
2020,04,11,06,08,4.80
2020,04,11,06,09,4.80
2020,04,11,06,10,4.80
2020,04,11,06,11,4.80
2020,04,11,06,12,4.80
2020,04,11,06,13,4.80
2020,04,11,06,14,4.80
2020,04,11,06,15,4.70
2020,04,11,06,16,4.70
2020,04,11,06,17,4.70
2020,04,11,06,18,4.70
2020,04,11,06,19,4.70
2020,04,11,06,20,4.70
2020,04,11,06,21,4.70
2020,04,11,06,22,4.70
2020,04,11,06,23,4.70
2020,04,11,06,24,4.70
2020,04,11,06,25,4.80
2020,04,11,06,26,4.80
2020,04,11,06,27,4.80
2020,04,11,06,28,4.90
2020,04,11,06,29,4.90
2020,04,11,06,30,4.90
2020,04,11,06,31,5.00
2020,04,11,06,32,5.00
2020,04,11,06,33,5.10
2020,04,11,06,34,5.10
2020,04,11,06,35,5.10
2020,04,11,06,36,5.20
2020,04,11,06,37,5.20
2020,04,11,06,38,5.30
2020,04,11,06,39,5.30
2020,04,11,06,40,5.40
2020,04,11,06,41,5.40
2020,04,11,06,42,5.50
2020,04,11,06,43,5.60
2020,04,11,06,44,5.60
2020,04,11,06,45,5.70
2020,04,11,06,46,5.70
2020,04,11,06,47,5.80
2020,04,11,06,48,5.90
2020,04,11,06,49,5.90
2020,04,11,06,50,6.00
2020,04,11,06,51,6.10
2020,04,11,06,52,6.10
2020,04,11,06,53,6.20
2020,04,11,06,54,6.20
2020,04,11,06,55,6.20
2020,04,11,06,56,6.30
2020,04,11,06,57,6.30
2020,04,11,06,58,6.40
2020,04,11,06,59,6.40
2020,04,11,07,00,6.50
2020,04,11,07,01,6.50
2020,04,11,07,02,6.60
2020,04,11,07,03,6.60
2020,04,11,07,04,6.60
2020,04,11,07,05,6.70
2020,04,11,07,06,6.70
2020,04,11,07,07,6.70
2020,04,11,07,08,6.80
2020,04,11,07,09,6.80
2020,04,11,07,10,6.80
2020,04,11,07,11,6.80
2020,04,11,07,12,6.80
2020,04,11,07,13,6.90
2020,04,11,07,14,6.90
2020,04,11,07,15,6.90
2020,04,11,07,16,7.00
2020,04,11,07,17,7.10
2020,04,11,07,18,7.20
2020,04,11,07,19,7.30
2020,04,11,07,20,7.40
2020,04,11,07,21,7.50
2020,04,11,07,22,7.60
2020,04,11,07,23,7.60
2020,04,11,07,24,7.70
2020,04,11,07,25,7.80
2020,04,11,07,26,7.80
2020,04,11,07,27,7.90
2020,04,11,07,28,7.90
2020,04,11,07,29,8.00
2020,04,11,07,30,8.10
2020,04,11,07,31,8.20
2020,04,11,07,32,8.20
2020,04,11,07,33,8.20
2020,04,11,07,34,8.20
2020,04,11,07,35,8.30
2020,04,11,07,36,8.30
2020,04,11,07,37,8.30
2020,04,11,07,38,8.40
2020,04,11,07,39,8.40
2020,04,11,07,40,8.50
2020,04,11,07,41,8.50
2020,04,11,07,42,8.50
2020,04,11,07,43,8.50
2020,04,11,07,44,8.50
2020,04,11,07,45,8.50
2020,04,11,07,46,8.50
2020,04,11,07,47,8.50
2020,04,11,07,48,8.40
2020,04,11,07,49,8.40
2020,04,11,07,50,8.40
2020,04,11,07,51,8.30
2020,04,11,07,52,8.20
2020,04,11,07,53,8.20
2020,04,11,07,54,8.20
2020,04,11,07,55,8.20
2020,04,11,07,56,8.10
2020,04,11,07,57,8.10
2020,04,11,07,58,8.10
2020,04,11,07,59,8.10
2020,04,11,08,00,8.10
2020,04,11,08,01,8.10
2020,04,11,08,02,8.10
2020,04,11,08,03,8.10
2020,04,11,08,04,8.00
2020,04,11,08,05,8.00
2020,04,11,08,06,8.00
2020,04,11,08,07,8.00
2020,04,11,08,08,8.00
2020,04,11,08,09,8.00
2020,04,11,08,10,8.00
2020,04,11,08,11,8.00
2020,04,11,08,12,8.00
2020,04,11,08,13,8.00
2020,04,11,08,14,8.00
2020,04,11,08,15,8.00
2020,04,11,08,16,8.00
2020,04,11,08,17,8.00
2020,04,11,08,18,8.00
2020,04,11,08,19,8.00
2020,04,11,08,20,8.00
2020,04,11,08,21,8.00
2020,04,11,08,22,8.10
2020,04,11,08,23,8.10
2020,04,11,08,24,8.10
2020,04,11,08,25,8.10
2020,04,11,08,26,8.10
2020,04,11,08,27,8.10
2020,04,11,08,28,8.10
2020,04,11,08,29,8.10
2020,04,11,08,30,8.10
2020,04,11,08,31,8.20
2020,04,11,08,32,8.20
2020,04,11,08,33,8.20
2020,04,11,08,34,8.20
2020,04,11,08,35,8.20
2020,04,11,08,36,8.20
2020,04,11,08,37,8.20
2020,04,11,08,38,8.20
2020,04,11,08,39,8.30
2020,04,11,08,40,8.30
2020,04,11,08,41,8.30
2020,04,11,08,42,8.30
2020,04,11,08,43,8.30
2020,04,11,08,44,8.40
2020,04,11,08,45,8.40
2020,04,11,08,46,8.50
2020,04,11,08,47,8.60
2020,04,11,08,48,8.60
2020,04,11,08,49,8.70
2020,04,11,08,50,8.80
2020,04,11,08,51,8.90
2020,04,11,08,52,9.00
2020,04,11,08,53,9.10
2020,04,11,08,54,9.20
2020,04,11,08,55,9.20
2020,04,11,08,56,9.30
2020,04,11,08,57,9.40
2020,04,11,08,58,9.50
2020,04,11,08,59,9.60
2020,04,11,09,00,9.60
2020,04,11,09,01,9.60
2020,04,11,09,02,9.60
2020,04,11,09,03,9.70
2020,04,11,09,04,9.70
2020,04,11,09,05,9.70
2020,04,11,09,06,9.70
2020,04,11,09,07,9.80
2020,04,11,09,08,9.80
2020,04,11,09,09,9.80
2020,04,11,09,10,9.80
2020,04,11,09,11,9.80
2020,04,11,09,12,9.80
2020,04,11,09,13,9.80
2020,04,11,09,14,9.80
2020,04,11,09,15,9.80
2020,04,11,09,16,9.80
2020,04,11,09,17,9.80
2020,04,11,09,18,9.80
2020,04,11,09,19,9.80
2020,04,11,09,20,9.80
2020,04,11,09,21,9.80
2020,04,11,09,22,9.70
2020,04,11,09,23,9.70
2020,04,11,09,24,9.70
2020,04,11,09,25,9.70
2020,04,11,09,26,9.70
2020,04,11,09,27,9.70
2020,04,11,09,28,9.70
2020,04,11,09,29,9.70
2020,04,11,09,30,9.80
2020,04,11,09,31,9.80
2020,04,11,09,32,9.80
2020,04,11,09,33,9.80
2020,04,11,09,34,9.70
2020,04,11,09,35,9.70
2020,04,11,09,36,9.70
2020,04,11,09,37,9.70
2020,04,11,09,38,9.70
2020,04,11,09,39,9.80
2020,04,11,09,40,9.80
2020,04,11,09,41,9.80
2020,04,11,09,42,9.90
2020,04,11,09,43,10.00
2020,04,11,09,44,10.00
2020,04,11,09,45,10.10
2020,04,11,09,46,10.10
2020,04,11,09,47,10.20
2020,04,11,09,48,10.30
2020,04,11,09,49,10.40
2020,04,11,09,50,10.50
2020,04,11,09,51,10.50
2020,04,11,09,52,10.60
2020,04,11,09,53,10.60
2020,04,11,09,54,10.70
2020,04,11,09,55,10.70
2020,04,11,09,56,10.70
2020,04,11,09,57,10.70
2020,04,11,09,58,10.70
2020,04,11,09,59,10.80
2020,04,11,10,00,10.80
2020,04,11,10,01,10.90
2020,04,11,10,02,11.00
2020,04,11,10,03,11.00
2020,04,11,10,04,11.10
2020,04,11,10,05,10.90
2020,04,11,10,06,10.90
2020,04,11,10,07,10.90
2020,04,11,10,08,10.80
2020,04,11,10,09,10.80
2020,04,11,10,10,10.80
2020,04,11,10,11,10.80
2020,04,11,10,12,10.80
2020,04,11,10,13,10.70
2020,04,11,10,14,10.70
2020,04,11,10,15,10.70
2020,04,11,10,16,10.80
2020,04,11,10,17,10.80
2020,04,11,10,18,10.80
2020,04,11,10,19,10.90
2020,04,11,10,20,10.90
2020,04,11,10,21,10.90
2020,04,11,10,22,10.90
2020,04,11,10,23,10.90
2020,04,11,10,24,10.80
2020,04,11,10,25,10.80
2020,04,11,10,26,10.70
2020,04,11,10,27,10.70
2020,04,11,10,28,10.70
2020,04,11,10,29,10.60
2020,04,11,10,30,10.60
2020,04,11,10,31,10.60
2020,04,11,10,32,10.60
2020,04,11,10,33,10.80
2020,04,11,10,34,10.80
2020,04,11,10,35,10.90
2020,04,11,10,36,11.00
2020,04,11,10,37,11.10
2020,04,11,10,38,11.20
2020,04,11,10,39,11.40
2020,04,11,10,40,11.50
2020,04,11,10,41,11.60
2020,04,11,10,42,11.70
2020,04,11,10,43,11.80
2020,04,11,10,44,11.80
2020,04,11,10,45,11.80
2020,04,11,10,46,11.80
2020,04,11,10,47,11.80
2020,04,11,10,48,11.80
2020,04,11,10,49,11.90
2020,04,11,10,50,12.00
2020,04,11,10,51,11.90
2020,04,11,10,52,11.90
2020,04,11,10,53,11.90
2020,04,11,10,54,11.80
2020,04,11,10,55,11.80
2020,04,11,10,56,11.80
2020,04,11,10,57,11.80
2020,04,11,10,58,11.90
2020,04,11,10,59,12.00
2020,04,11,11,00,12.10
2020,04,11,11,01,12.20
2020,04,11,11,02,12.30
2020,04,11,11,03,12.30
2020,04,11,11,04,12.40
2020,04,11,11,05,12.40
2020,04,11,11,06,12.40
2020,04,11,11,07,12.30
2020,04,11,11,08,12.30
2020,04,11,11,09,12.10
2020,04,11,11,10,12.00
2020,04,11,11,11,11.90
2020,04,11,11,12,11.80
2020,04,11,11,13,11.70
2020,04,11,11,14,11.70
2020,04,11,11,15,11.70
2020,04,11,11,16,11.70
2020,04,11,11,17,11.80
2020,04,11,11,18,11.90
2020,04,11,11,19,12.00
2020,04,11,11,20,12.10
2020,04,11,11,21,12.10
2020,04,11,11,22,12.20
2020,04,11,11,23,12.20
2020,04,11,11,24,12.20
2020,04,11,11,25,12.20
2020,04,11,11,26,12.30
2020,04,11,11,27,12.30
2020,04,11,11,28,12.30
2020,04,11,11,29,12.30
2020,04,11,11,30,12.30
2020,04,11,11,31,12.30
2020,04,11,11,32,12.40
2020,04,11,11,33,12.60
2020,04,11,11,34,12.70
2020,04,11,11,35,12.70
2020,04,11,11,36,12.80
2020,04,11,11,37,12.80
2020,04,11,11,38,12.90
2020,04,11,11,39,13.00
2020,04,11,11,40,13.00
2020,04,11,11,41,12.90
2020,04,11,11,42,12.90
2020,04,11,11,43,12.90
2020,04,11,11,44,13.00
2020,04,11,11,45,13.10
2020,04,11,11,46,13.10
2020,04,11,11,47,13.20
2020,04,11,11,48,13.20
2020,04,11,11,49,13.20
2020,04,11,11,50,13.20
2020,04,11,11,51,13.20
2020,04,11,11,52,13.10
2020,04,11,11,53,13.00
2020,04,11,11,54,12.90
2020,04,11,11,55,12.80
2020,04,11,11,56,12.80
2020,04,11,11,57,12.80
2020,04,11,11,58,12.80
2020,04,11,11,59,12.80
2020,04,11,12,00,12.80
2020,04,11,12,01,12.80
2020,04,11,12,02,12.90
2020,04,11,12,03,13.00
2020,04,11,12,04,13.00
2020,04,11,12,05,13.20
2020,04,11,12,06,13.30
2020,04,11,12,07,13.40
2020,04,11,12,08,13.50
2020,04,11,12,09,13.60
2020,04,11,12,10,13.60
2020,04,11,12,11,13.60
2020,04,11,12,12,13.60
2020,04,11,12,13,13.60
2020,04,11,12,14,13.50
2020,04,11,12,15,13.50
2020,04,11,12,16,13.40
2020,04,11,12,17,13.40
2020,04,11,12,18,13.40
2020,04,11,12,19,13.40
2020,04,11,12,20,13.30
2020,04,11,12,21,13.20
2020,04,11,12,22,13.10
2020,04,11,12,23,13.10
2020,04,11,12,24,13.20
2020,04,11,12,25,13.10
2020,04,11,12,26,13.10
2020,04,11,12,27,13.10
2020,04,11,12,28,13.10
2020,04,11,12,29,13.00
2020,04,11,12,30,13.00
2020,04,11,12,31,12.90
2020,04,11,12,32,12.90
2020,04,11,12,33,12.80
2020,04,11,12,34,12.80
2020,04,11,12,35,12.80
2020,04,11,12,36,12.70
2020,04,11,12,37,12.60
2020,04,11,12,38,12.50
2020,04,11,12,39,12.50
2020,04,11,12,40,12.50
2020,04,11,12,41,12.60
2020,04,11,12,42,12.60
2020,04,11,12,43,12.70
2020,04,11,12,44,12.90
2020,04,11,12,45,13.10
2020,04,11,12,46,13.20
2020,04,11,12,47,13.40
2020,04,11,12,48,13.60
2020,04,11,12,49,13.70
2020,04,11,12,50,13.80
2020,04,11,12,51,13.80
2020,04,11,12,52,13.80
2020,04,11,12,53,13.70
2020,04,11,12,54,13.60
2020,04,11,12,55,13.50
2020,04,11,12,56,13.30
2020,04,11,12,57,13.20
2020,04,11,12,58,13.20
2020,04,11,12,59,13.10
2020,04,11,13,00,13.20
2020,04,11,13,01,13.30
2020,04,11,13,02,13.40
2020,04,11,13,03,13.40
2020,04,11,13,04,13.40
2020,04,11,13,05,13.30
2020,04,11,13,06,13.30
2020,04,11,13,07,13.30
2020,04,11,13,08,13.20
2020,04,11,13,09,13.20
2020,04,11,13,10,13.30
2020,04,11,13,11,13.40
2020,04,11,13,12,13.50
2020,04,11,13,13,13.60
2020,04,11,13,14,13.70
2020,04,11,13,15,13.70
2020,04,11,13,16,13.70
2020,04,11,13,17,13.80
2020,04,11,13,18,13.80
2020,04,11,13,19,13.80
2020,04,11,13,20,13.90
2020,04,11,13,21,13.90
2020,04,11,13,22,13.90
2020,04,11,13,23,13.90
2020,04,11,13,24,13.80
2020,04,11,13,25,13.70
2020,04,11,13,26,13.50
2020,04,11,13,27,13.40
2020,04,11,13,28,13.50
2020,04,11,13,29,13.60
2020,04,11,13,30,13.80
2020,04,11,13,31,13.90
2020,04,11,13,32,14.00
2020,04,11,13,33,14.10
2020,04,11,13,34,14.10
2020,04,11,13,35,14.10
2020,04,11,13,36,14.20
2020,04,11,13,37,14.30
2020,04,11,13,38,14.20
2020,04,11,13,39,14.20
2020,04,11,13,40,14.20
2020,04,11,13,41,14.20
2020,04,11,13,42,14.20
2020,04,11,13,43,14.20
2020,04,11,13,44,14.20
2020,04,11,13,45,14.30
2020,04,11,13,46,14.20
2020,04,11,13,47,14.00
2020,04,11,13,48,13.90
2020,04,11,13,49,13.90
2020,04,11,13,50,13.80
2020,04,11,13,51,13.80
2020,04,11,13,52,13.80
2020,04,11,13,53,13.80
2020,04,11,13,54,13.90
2020,04,11,13,55,13.90
2020,04,11,13,56,14.00
2020,04,11,13,57,14.00
2020,04,11,13,58,14.00
2020,04,11,13,59,14.00
2020,04,11,14,00,13.90
2020,04,11,14,01,14.00
2020,04,11,14,02,14.00
2020,04,11,14,03,14.00
2020,04,11,14,04,14.10
2020,04,11,14,05,14.20
2020,04,11,14,06,14.30
2020,04,11,14,07,14.40
2020,04,11,14,08,14.60
2020,04,11,14,09,14.70
2020,04,11,14,10,14.80
2020,04,11,14,11,14.80
2020,04,11,14,12,14.80
2020,04,11,14,13,14.80
2020,04,11,14,14,14.80
2020,04,11,14,15,14.90
2020,04,11,14,16,14.90
2020,04,11,14,17,14.90
2020,04,11,14,18,15.00
2020,04,11,14,19,15.00
2020,04,11,14,20,15.00
2020,04,11,14,21,15.10
2020,04,11,14,22,15.20
2020,04,11,14,23,15.20
2020,04,11,14,24,15.30
2020,04,11,14,25,15.30
2020,04,11,14,26,15.30
2020,04,11,14,27,15.20
2020,04,11,14,28,15.20
2020,04,11,14,29,15.10
2020,04,11,14,30,15.10
2020,04,11,14,31,15.10
2020,04,11,14,32,15.00
2020,04,11,14,33,15.00
2020,04,11,14,34,14.90
2020,04,11,14,35,14.70
2020,04,11,14,36,14.60
2020,04,11,14,37,14.40
2020,04,11,14,38,14.30
2020,04,11,14,39,14.30
2020,04,11,14,40,14.30
2020,04,11,14,41,14.40
2020,04,11,14,42,14.50
2020,04,11,14,43,14.70
2020,04,11,14,44,14.70
2020,04,11,14,45,14.80
2020,04,11,14,46,14.80
2020,04,11,14,47,14.70
2020,04,11,14,48,14.70
2020,04,11,14,49,14.70
2020,04,11,14,50,14.70
2020,04,11,14,51,14.50
2020,04,11,14,52,14.40
2020,04,11,14,53,14.30
2020,04,11,14,54,14.30
2020,04,11,14,55,14.30
2020,04,11,14,56,14.40
2020,04,11,14,57,14.40
2020,04,11,14,58,14.40
2020,04,11,14,59,14.50
2020,04,11,15,00,14.60
2020,04,11,15,01,14.70
2020,04,11,15,02,14.80
2020,04,11,15,03,14.90
2020,04,11,15,04,15.00
2020,04,11,15,05,15.10
2020,04,11,15,06,15.20
2020,04,11,15,07,15.40
2020,04,11,15,08,15.40
2020,04,11,15,09,15.30
2020,04,11,15,10,15.20
2020,04,11,15,11,15.20
2020,04,11,15,12,15.20
2020,04,11,15,13,15.20
2020,04,11,15,14,15.20
2020,04,11,15,15,15.10
2020,04,11,15,16,15.00
2020,04,11,15,17,15.10
2020,04,11,15,18,15.10
2020,04,11,15,19,15.00
2020,04,11,15,20,14.90
2020,04,11,15,21,14.80
2020,04,11,15,22,14.70
2020,04,11,15,23,14.60
2020,04,11,15,24,14.60
2020,04,11,15,25,14.60
2020,04,11,15,26,14.50
2020,04,11,15,27,14.50
2020,04,11,15,28,14.50
2020,04,11,15,29,14.50
2020,04,11,15,30,14.50
2020,04,11,15,31,14.50
2020,04,11,15,32,14.70
2020,04,11,15,33,14.80
2020,04,11,15,34,14.80
2020,04,11,15,35,14.90
2020,04,11,15,36,14.80
2020,04,11,15,37,14.80
2020,04,11,15,38,14.90
2020,04,11,15,39,14.90
2020,04,11,15,40,15.00
2020,04,11,15,41,15.00
2020,04,11,15,42,14.90
2020,04,11,15,43,14.90
2020,04,11,15,44,14.90
2020,04,11,15,45,14.90
2020,04,11,15,46,14.80
2020,04,11,15,47,14.80
2020,04,11,15,48,14.80
2020,04,11,15,49,14.80
2020,04,11,15,50,14.90
2020,04,11,15,51,15.10
2020,04,11,15,52,15.10
2020,04,11,15,53,15.20
2020,04,11,15,54,15.10
2020,04,11,15,55,15.10
2020,04,11,15,56,15.00
2020,04,11,15,57,14.90
2020,04,11,15,58,15.00
2020,04,11,15,59,15.00
2020,04,11,16,00,14.90
2020,04,11,16,01,14.90
2020,04,11,16,02,15.00
2020,04,11,16,03,15.00
2020,04,11,16,04,15.10
2020,04,11,16,05,15.10
2020,04,11,16,06,15.10
2020,04,11,16,07,15.00
2020,04,11,16,08,15.00
2020,04,11,16,09,15.00
2020,04,11,16,10,15.00
2020,04,11,16,11,15.00
2020,04,11,16,12,15.10
2020,04,11,16,13,15.10
2020,04,11,16,14,15.20
2020,04,11,16,15,15.20
2020,04,11,16,16,15.20
2020,04,11,16,17,15.20
2020,04,11,16,18,15.30
2020,04,11,16,19,15.30
2020,04,11,16,20,15.40
2020,04,11,16,21,15.40
2020,04,11,16,22,15.40
2020,04,11,16,23,15.40
2020,04,11,16,24,15.50
2020,04,11,16,25,15.50
2020,04,11,16,26,15.60
2020,04,11,16,27,15.60
2020,04,11,16,28,15.50
2020,04,11,16,29,15.50
2020,04,11,16,30,15.50
2020,04,11,16,31,15.50
2020,04,11,16,32,15.40
2020,04,11,16,33,15.40
2020,04,11,16,34,15.30
2020,04,11,16,35,15.30
2020,04,11,16,36,15.30
2020,04,11,16,37,15.20
2020,04,11,16,38,15.20
2020,04,11,16,39,15.20
2020,04,11,16,40,15.10
2020,04,11,16,41,15.00
2020,04,11,16,42,14.90
2020,04,11,16,43,14.80
2020,04,11,16,44,14.80
2020,04,11,16,45,14.80
2020,04,11,16,46,14.80
2020,04,11,16,47,14.90
2020,04,11,16,48,14.90
2020,04,11,16,49,14.90
2020,04,11,16,50,14.80
2020,04,11,16,51,14.80
2020,04,11,16,52,14.80
2020,04,11,16,53,14.80
2020,04,11,16,54,14.80
2020,04,11,16,55,14.80
2020,04,11,16,56,14.80
2020,04,11,16,57,14.80
2020,04,11,16,58,14.80
2020,04,11,16,59,14.80
2020,04,11,17,00,14.70
2020,04,11,17,01,14.70
2020,04,11,17,02,14.70
2020,04,11,17,03,14.70
2020,04,11,17,04,14.70
2020,04,11,17,05,14.70
2020,04,11,17,06,14.70
2020,04,11,17,07,14.80
2020,04,11,17,08,14.70
2020,04,11,17,09,14.70
2020,04,11,17,10,14.70
2020,04,11,17,11,14.70
2020,04,11,17,12,14.80
2020,04,11,17,13,14.80
2020,04,11,17,14,14.80
2020,04,11,17,15,14.80
2020,04,11,17,16,14.70
2020,04,11,17,17,14.70
2020,04,11,17,18,14.70
2020,04,11,17,19,14.70
2020,04,11,17,20,14.70
2020,04,11,17,21,14.70
2020,04,11,17,22,14.80
2020,04,11,17,23,14.90
2020,04,11,17,24,14.90
2020,04,11,17,25,15.00
2020,04,11,17,26,15.00
2020,04,11,17,27,15.00
2020,04,11,17,28,14.90
2020,04,11,17,29,14.80
2020,04,11,17,30,14.70
2020,04,11,17,31,14.60
2020,04,11,17,32,14.60
2020,04,11,17,33,14.60
2020,04,11,17,34,14.50
2020,04,11,17,35,14.60
2020,04,11,17,36,14.50
2020,04,11,17,37,14.60
2020,04,11,17,38,14.60
2020,04,11,17,39,14.60
2020,04,11,17,40,14.60
2020,04,11,17,41,14.50
2020,04,11,17,42,14.50
2020,04,11,17,43,14.60
2020,04,11,17,44,14.60